1595282448,2020-07-21 00:00,432.00,-36
1595282508,2020-07-21 00:01,432.00,-40
1595282568,2020-07-21 00:02,436.00,-35
1595282628,2020-07-21 00:03,434.00,-39
1595282688,2020-07-21 00:04,434.00,-38
1595282748,2020-07-21 00:05,433.00,-39
1595282808,2020-07-21 00:06,435.00,-37
1595282868,2020-07-21 00:07,437.00,-36
1595282928,2020-07-21 00:08,436.00,-38
1595282989,2020-07-21 00:09,436.00,-38
1595283049,2020-07-21 00:10,435.00,-40
1595283109,2020-07-21 00:11,435.00,-37
1595283169,2020-07-21 00:12,436.00,-35
1595283229,2020-07-21 00:13,439.00,-35
1595283289,2020-07-21 00:14,436.00,-38
1595283349,2020-07-21 00:15,435.00,-32
1595283409,2020-07-21 00:16,433.00,-41
1595283469,2020-07-21 00:17,436.00,-39
1595283529,2020-07-21 00:18,439.00,-41
1595283589,2020-07-21 00:19,437.00,-30
1595283649,2020-07-21 00:20,439.00,-38
1595283710,2020-07-21 00:21,439.00,-38
1595283770,2020-07-21 00:22,445.00,-35
1595283830,2020-07-21 00:23,440.00,-35
1595283890,2020-07-21 00:24,441.00,-38
1595283950,2020-07-21 00:25,442.00,-36
1595284010,2020-07-21 00:26,441.00,-37
1595284070,2020-07-21 00:27,441.00,-33
1595284130,2020-07-21 00:28,442.00,-39
1595284190,2020-07-21 00:29,443.00,-33
1595284250,2020-07-21 00:30,444.00,-39
1595284311,2020-07-21 00:31,443.00,-38
1595284371,2020-07-21 00:32,442.00,-39
1595284431,2020-07-21 00:33,444.00,-39
1595284491,2020-07-21 00:34,442.00,-35
1595284551,2020-07-21 00:35,440.00,-39
1595284611,2020-07-21 00:36,442.00,-33
1595284671,2020-07-21 00:37,444.00,-37
1595284731,2020-07-21 00:38,444.00,-39
1595284791,2020-07-21 00:39,444.00,-37
1595284852,2020-07-21 00:40,444.00,-38
1595284912,2020-07-21 00:41,443.00,-38
1595284972,2020-07-21 00:42,442.00,-33
1595285033,2020-07-21 00:43,443.00,-37
1595285093,2020-07-21 00:44,441.00,-40
1595285153,2020-07-21 00:45,443.00,-37
1595285213,2020-07-21 00:46,444.00,-38
1595285273,2020-07-21 00:47,444.00,-40
1595285334,2020-07-21 00:48,439.00,-34
1595285394,2020-07-21 00:49,446.00,-33
1595285454,2020-07-21 00:50,442.00,-34
1595285514,2020-07-21 00:51,439.00,-39
1595285574,2020-07-21 00:52,440.00,-37
1595285634,2020-07-21 00:53,441.00,-33
1595285694,2020-07-21 00:54,440.00,-34
1595285754,2020-07-21 00:55,441.00,-36
1595285814,2020-07-21 00:56,442.00,-40
1595285874,2020-07-21 00:57,444.00,-37
1595285934,2020-07-21 00:58,444.00,-31
1595285995,2020-07-21 00:59,442.00,-34
1595286055,2020-07-21 01:00,443.00,-33
1595286115,2020-07-21 01:01,445.00,-33
1595286175,2020-07-21 01:02,443.00,-38
1595286235,2020-07-21 01:03,443.00,-34
1595286296,2020-07-21 01:04,442.00,-38
1595286356,2020-07-21 01:05,443.00,-36
1595286416,2020-07-21 01:06,442.00,-33
1595286476,2020-07-21 01:07,442.00,-35
1595286536,2020-07-21 01:08,439.00,-34
1595286596,2020-07-21 01:09,437.00,-35
1595286657,2020-07-21 01:10,438.00,-32
1595286717,2020-07-21 01:11,439.00,-36
1595286777,2020-07-21 01:12,440.00,-32
1595286837,2020-07-21 01:13,439.00,-40
1595286897,2020-07-21 01:14,440.00,-37
1595286957,2020-07-21 01:15,437.00,-37
1595287017,2020-07-21 01:16,438.00,-37
1595287077,2020-07-21 01:17,436.00,-34
1595287137,2020-07-21 01:18,439.00,-36
1595287197,2020-07-21 01:19,437.00,-37
1595287257,2020-07-21 01:20,436.00,-33
1595287317,2020-07-21 01:21,438.00,-34
1595287377,2020-07-21 01:22,437.00,-35
1595287437,2020-07-21 01:23,437.00,-31
1595287497,2020-07-21 01:24,437.00,-37
1595287557,2020-07-21 01:25,434.00,-37
1595287617,2020-07-21 01:26,435.00,-34
1595287678,2020-07-21 01:27,436.00,-35
1595287738,2020-07-21 01:28,436.00,-34
1595287798,2020-07-21 01:29,433.00,-33
1595287858,2020-07-21 01:30,437.00,-36
1595287918,2020-07-21 01:31,434.00,-31
1595287978,2020-07-21 01:32,435.00,-34
1595288038,2020-07-21 01:33,434.00,-37
1595288098,2020-07-21 01:34,438.00,-32
1595288158,2020-07-21 01:35,435.00,-34
1595288218,2020-07-21 01:36,434.00,-34
1595288278,2020-07-21 01:37,435.00,-36
1595288338,2020-07-21 01:38,436.00,-33
1595288398,2020-07-21 01:39,436.00,-32
1595288458,2020-07-21 01:40,433.00,-30
1595288519,2020-07-21 01:41,434.00,-34
1595288579,2020-07-21 01:42,437.00,-32
1595288639,2020-07-21 01:43,433.00,-32
1595288699,2020-07-21 01:44,433.00,-36
1595288759,2020-07-21 01:45,434.00,-32
1595288819,2020-07-21 01:46,433.00,-35
1595288879,2020-07-21 01:47,433.00,-34
1595288939,2020-07-21 01:48,434.00,-36
1595288999,2020-07-21 01:49,435.00,-32
1595289059,2020-07-21 01:50,435.00,-34
1595289119,2020-07-21 01:51,434.00,-35
1595289179,2020-07-21 01:52,437.00,-36
1595289239,2020-07-21 01:53,437.00,-36
1595289299,2020-07-21 01:54,434.00,-35
1595289359,2020-07-21 01:55,438.00,-32
1595289419,2020-07-21 01:56,439.00,-32
1595289479,2020-07-21 01:57,439.00,-32
1595289539,2020-07-21 01:58,437.00,-30
1595289599,2020-07-21 01:59,439.00,-33
1595289659,2020-07-21 02:00,436.00,-36
1595289719,2020-07-21 02:01,435.00,-35
1595289779,2020-07-21 02:02,436.00,-32
1595289839,2020-07-21 02:03,437.00,-32
1595289899,2020-07-21 02:04,436.00,-32
1595289959,2020-07-21 02:05,436.00,-30
1595290020,2020-07-21 02:07,435.00,-33
1595290080,2020-07-21 02:08,434.00,-31
1595290140,2020-07-21 02:09,437.00,-35
1595290200,2020-07-21 02:10,433.00,-31
1595290260,2020-07-21 02:11,434.00,-35
1595290320,2020-07-21 02:12,434.00,-35
1595290380,2020-07-21 02:13,432.00,-29
1595290440,2020-07-21 02:14,433.00,-32
1595290500,2020-07-21 02:15,433.00,-31
1595290560,2020-07-21 02:16,435.00,-35
1595290620,2020-07-21 02:17,435.00,-35
1595290680,2020-07-21 02:18,435.00,-31
1595290740,2020-07-21 02:19,433.00,-33
1595290800,2020-07-21 02:20,435.00,-31
1595290860,2020-07-21 02:21,433.00,-33
1595290920,2020-07-21 02:22,434.00,-32
1595290980,2020-07-21 02:23,433.00,-30
1595291040,2020-07-21 02:24,434.00,-33
1595291100,2020-07-21 02:25,438.00,-33
1595291160,2020-07-21 02:26,437.00,-33
1595291221,2020-07-21 02:27,435.00,-33
1595291281,2020-07-21 02:28,432.00,-32
1595291341,2020-07-21 02:29,432.00,-30
1595291401,2020-07-21 02:30,432.00,-30
1595291461,2020-07-21 02:31,435.00,-33
1595291521,2020-07-21 02:32,436.00,-31
1595291581,2020-07-21 02:33,432.00,-31
1595291641,2020-07-21 02:34,434.00,-33
1595291701,2020-07-21 02:35,433.00,-31
1595291761,2020-07-21 02:36,436.00,-31
1595291821,2020-07-21 02:37,433.00,-30
1595291881,2020-07-21 02:38,435.00,-31
1595291941,2020-07-21 02:39,435.00,-30
1595292001,2020-07-21 02:40,434.00,-30
1595292061,2020-07-21 02:41,434.00,-30
1595292121,2020-07-21 02:42,431.00,-31
1595292181,2020-07-21 02:43,433.00,-29
1595292241,2020-07-21 02:44,434.00,-33
1595292301,2020-07-21 02:45,434.00,-30
1595292361,2020-07-21 02:46,435.00,-31
1595292421,2020-07-21 02:47,434.00,-30
1595292481,2020-07-21 02:48,435.00,-32
1595292541,2020-07-21 02:49,437.00,-30
1595292601,2020-07-21 02:50,435.00,-31
1595292662,2020-07-21 02:51,436.00,-33
1595292722,2020-07-21 02:52,435.00,-31
1595292782,2020-07-21 02:53,437.00,-34
1595292842,2020-07-21 02:54,439.00,-30
1595292902,2020-07-21 02:55,435.00,-30
1595292962,2020-07-21 02:56,438.00,-32
1595293022,2020-07-21 02:57,439.00,-31
1595293082,2020-07-21 02:58,437.00,-30
1595293142,2020-07-21 02:59,438.00,-35
1595293202,2020-07-21 03:00,438.00,-32
1595293262,2020-07-21 03:01,439.00,-31
1595293322,2020-07-21 03:02,439.00,-30
1595293382,2020-07-21 03:03,438.00,-33
1595293442,2020-07-21 03:04,437.00,-35
1595293502,2020-07-21 03:05,441.00,-32
1595293562,2020-07-21 03:06,440.00,-31
1595293622,2020-07-21 03:07,439.00,-31
1595293682,2020-07-21 03:08,440.00,-30
1595293742,2020-07-21 03:09,438.00,-31
1595293802,2020-07-21 03:10,440.00,-31
1595293862,2020-07-21 03:11,440.00,-33
1595293922,2020-07-21 03:12,441.00,-32
1595293983,2020-07-21 03:13,440.00,-31
1595294043,2020-07-21 03:14,439.00,-30
1595294103,2020-07-21 03:15,439.00,-33
1595294163,2020-07-21 03:16,440.00,-31
1595294223,2020-07-21 03:17,439.00,-30
1595294283,2020-07-21 03:18,441.00,-31
1595294343,2020-07-21 03:19,438.00,-31
1595294403,2020-07-21 03:20,435.00,-32
1595294463,2020-07-21 03:21,435.00,-31
1595294523,2020-07-21 03:22,436.00,-31
1595294583,2020-07-21 03:23,435.00,-30
1595294643,2020-07-21 03:24,435.00,-30
1595294703,2020-07-21 03:25,437.00,-31
1595294763,2020-07-21 03:26,437.00,-32
1595294823,2020-07-21 03:27,435.00,-32
1595294883,2020-07-21 03:28,433.00,-31
1595294943,2020-07-21 03:29,431.00,-31
1595295003,2020-07-21 03:30,431.00,-32
1595295063,2020-07-21 03:31,437.00,-32
1595295123,2020-07-21 03:32,434.00,-30
1595295183,2020-07-21 03:33,431.00,-35
1595295243,2020-07-21 03:34,431.00,-31
1595295303,2020-07-21 03:35,433.00,-32
1595295363,2020-07-21 03:36,430.00,-30
1595295424,2020-07-21 03:37,432.00,-32
1595295484,2020-07-21 03:38,430.00,-34
1595295544,2020-07-21 03:39,433.00,-30
1595295604,2020-07-21 03:40,433.00,-30
1595295664,2020-07-21 03:41,433.00,-30
1595295724,2020-07-21 03:42,435.00,-30
1595295784,2020-07-21 03:43,435.00,-30
1595295844,2020-07-21 03:44,435.00,-31
1595295904,2020-07-21 03:45,435.00,-30
1595295964,2020-07-21 03:46,435.00,-30
1595296024,2020-07-21 03:47,435.00,-31
1595296084,2020-07-21 03:48,434.00,-30
1595296144,2020-07-21 03:49,435.00,-30
1595296204,2020-07-21 03:50,435.00,-33
1595296264,2020-07-21 03:51,434.00,-31
1595296324,2020-07-21 03:52,433.00,-30
1595296384,2020-07-21 03:53,431.00,-30
1595296444,2020-07-21 03:54,431.00,-32
1595296504,2020-07-21 03:55,433.00,-33
1595296564,2020-07-21 03:56,433.00,-32
1595296624,2020-07-21 03:57,434.00,-31
1595296685,2020-07-21 03:58,433.00,-30
1595296745,2020-07-21 03:59,432.00,-33
1595296805,2020-07-21 04:00,431.00,-32
1595296865,2020-07-21 04:01,431.00,-31
1595296925,2020-07-21 04:02,432.00,-30
1595296985,2020-07-21 04:03,430.00,-32
1595297045,2020-07-21 04:04,428.00,-30
1595297105,2020-07-21 04:05,430.00,-30
1595297165,2020-07-21 04:06,428.00,-33
1595297225,2020-07-21 04:07,431.00,-30
1595297285,2020-07-21 04:08,433.00,-30
1595297345,2020-07-21 04:09,433.00,-32
1595297405,2020-07-21 04:10,430.00,-34
1595297465,2020-07-21 04:11,427.00,-35
1595297525,2020-07-21 04:12,433.00,-30
1595297585,2020-07-21 04:13,430.00,-30
1595297645,2020-07-21 04:14,432.00,-33
1595297705,2020-07-21 04:15,431.00,-29
1595297765,2020-07-21 04:16,431.00,-31
1595297826,2020-07-21 04:17,431.00,-32
1595297886,2020-07-21 04:18,432.00,-33
1595297946,2020-07-21 04:19,431.00,-30
1595298006,2020-07-21 04:20,433.00,-32
1595298066,2020-07-21 04:21,433.00,-31
1595298126,2020-07-21 04:22,435.00,-33
1595298186,2020-07-21 04:23,432.00,-29
1595298246,2020-07-21 04:24,430.00,-30
1595298306,2020-07-21 04:25,431.00,-33
1595298366,2020-07-21 04:26,431.00,-34
1595298426,2020-07-21 04:27,432.00,-30
1595298486,2020-07-21 04:28,433.00,-34
1595298546,2020-07-21 04:29,437.00,-34
1595298606,2020-07-21 04:30,433.00,-32
1595298666,2020-07-21 04:31,432.00,-30
1595298726,2020-07-21 04:32,434.00,-33
1595298786,2020-07-21 04:33,434.00,-30
1595298846,2020-07-21 04:34,432.00,-31
1595298906,2020-07-21 04:35,433.00,-29
1595298966,2020-07-21 04:36,436.00,-30
1595299026,2020-07-21 04:37,434.00,-32
1595299086,2020-07-21 04:38,430.00,-30
1595299146,2020-07-21 04:39,434.00,-31
1595299207,2020-07-21 04:40,435.00,-29
1595299267,2020-07-21 04:41,432.00,-30
1595299327,2020-07-21 04:42,432.00,-33
1595299387,2020-07-21 04:43,433.00,-32
1595299447,2020-07-21 04:44,433.00,-33
1595299507,2020-07-21 04:45,434.00,-32
1595299567,2020-07-21 04:46,432.00,-31
1595299627,2020-07-21 04:47,431.00,-30
1595299687,2020-07-21 04:48,435.00,-29
1595299747,2020-07-21 04:49,436.00,-29
1595299807,2020-07-21 04:50,433.00,-29
1595299867,2020-07-21 04:51,434.00,-29
1595299927,2020-07-21 04:52,433.00,-30
1595299987,2020-07-21 04:53,432.00,-32
1595300047,2020-07-21 04:54,435.00,-31
1595300107,2020-07-21 04:55,438.00,-29
1595300167,2020-07-21 04:56,432.00,-32
1595300227,2020-07-21 04:57,435.00,-31
1595300287,2020-07-21 04:58,434.00,-30
1595300347,2020-07-21 04:59,433.00,-30
1595300407,2020-07-21 05:00,432.00,-32
1595300467,2020-07-21 05:01,439.00,-32
1595300528,2020-07-21 05:02,435.00,-30
1595300588,2020-07-21 05:03,437.00,-31
1595300648,2020-07-21 05:04,435.00,-30
1595300708,2020-07-21 05:05,437.00,-30
1595300768,2020-07-21 05:06,433.00,-32
1595300828,2020-07-21 05:07,435.00,-29
1595300888,2020-07-21 05:08,436.00,-30
1595300948,2020-07-21 05:09,432.00,-30
1595301008,2020-07-21 05:10,435.00,-29
1595301068,2020-07-21 05:11,436.00,-29
1595301128,2020-07-21 05:12,433.00,-31
1595301188,2020-07-21 05:13,435.00,-29
1595301248,2020-07-21 05:14,433.00,-31
1595301308,2020-07-21 05:15,433.00,-29
1595301368,2020-07-21 05:16,433.00,-30
1595301428,2020-07-21 05:17,435.00,-30
1595301488,2020-07-21 05:18,434.00,-29
1595301548,2020-07-21 05:19,434.00,-29
1595301608,2020-07-21 05:20,433.00,-30
1595301669,2020-07-21 05:21,430.00,-31
1595301729,2020-07-21 05:22,429.00,-29
1595301789,2020-07-21 05:23,432.00,-29
1595301849,2020-07-21 05:24,431.00,-30
1595301909,2020-07-21 05:25,429.00,-30
1595301969,2020-07-21 05:26,433.00,-29
1595302029,2020-07-21 05:27,435.00,-30
1595302089,2020-07-21 05:28,437.00,-29
1595302149,2020-07-21 05:29,431.00,-32
1595302209,2020-07-21 05:30,430.00,-30
1595302269,2020-07-21 05:31,432.00,-29
1595302329,2020-07-21 05:32,430.00,-29
1595302389,2020-07-21 05:33,431.00,-28
1595302449,2020-07-21 05:34,431.00,-30
1595302509,2020-07-21 05:35,429.00,-29
1595302570,2020-07-21 05:36,431.00,-29
1595302630,2020-07-21 05:37,430.00,-31
1595302690,2020-07-21 05:38,430.00,-31
1595302750,2020-07-21 05:39,433.00,-29
1595302810,2020-07-21 05:40,431.00,-33
1595302870,2020-07-21 05:41,431.00,-29
1595302930,2020-07-21 05:42,432.00,-29
1595302990,2020-07-21 05:43,432.00,-29
1595303050,2020-07-21 05:44,429.00,-28
1595303110,2020-07-21 05:45,430.00,-29
1595303170,2020-07-21 05:46,432.00,-28
1595303231,2020-07-21 05:47,431.00,-27
1595303291,2020-07-21 05:48,433.00,-27
1595303351,2020-07-21 05:49,435.00,-28
1595303411,2020-07-21 05:50,431.00,-29
1595303471,2020-07-21 05:51,433.00,-30
1595303531,2020-07-21 05:52,434.00,-30
1595303591,2020-07-21 05:53,434.00,-28
1595303651,2020-07-21 05:54,434.00,-28
1595303711,2020-07-21 05:55,436.00,-28
1595303771,2020-07-21 05:56,437.00,-28
1595303832,2020-07-21 05:57,439.00,-29
1595303892,2020-07-21 05:58,438.00,-31
1595303952,2020-07-21 05:59,438.00,-28
1595304012,2020-07-21 06:00,442.00,-31
1595304072,2020-07-21 06:01,439.00,-30
1595304132,2020-07-21 06:02,438.00,-30
1595304192,2020-07-21 06:03,437.00,-28
1595304252,2020-07-21 06:04,437.00,-29
1595304312,2020-07-21 06:05,437.00,-29
1595304372,2020-07-21 06:06,439.00,-29
1595304432,2020-07-21 06:07,437.00,-31
1595304492,2020-07-21 06:08,436.00,-28
1595304552,2020-07-21 06:09,441.00,-30
1595304612,2020-07-21 06:10,441.00,-30
1595304672,2020-07-21 06:11,445.00,-31
1595304732,2020-07-21 06:12,440.00,-28
1595304793,2020-07-21 06:13,442.00,-28
1595304853,2020-07-21 06:14,441.00,-29
1595304913,2020-07-21 06:15,439.00,-28
1595304973,2020-07-21 06:16,441.00,-29
1595305033,2020-07-21 06:17,441.00,-29
1595305093,2020-07-21 06:18,445.00,-27
1595305153,2020-07-21 06:19,442.00,-28
1595305213,2020-07-21 06:20,440.00,-29
1595305273,2020-07-21 06:21,442.00,-28
1595305333,2020-07-21 06:22,442.00,-28
1595305393,2020-07-21 06:23,437.00,-29
1595305453,2020-07-21 06:24,439.00,-27
1595305514,2020-07-21 06:25,437.00,-28
1595305574,2020-07-21 06:26,438.00,-29
1595305634,2020-07-21 06:27,438.00,-28
1595305694,2020-07-21 06:28,436.00,-29
1595305754,2020-07-21 06:29,436.00,-29
1595305815,2020-07-21 06:30,435.00,-29
1595305875,2020-07-21 06:31,436.00,-29
1595305935,2020-07-21 06:32,438.00,-29
1595305995,2020-07-21 06:33,438.00,-28
1595306055,2020-07-21 06:34,439.00,-28
1595306115,2020-07-21 06:35,438.00,-29
1595306175,2020-07-21 06:36,438.00,-28
1595306235,2020-07-21 06:37,439.00,-29
1595306295,2020-07-21 06:38,438.00,-28
1595306355,2020-07-21 06:39,438.00,-28
1595306415,2020-07-21 06:40,436.00,-29
1595306475,2020-07-21 06:41,438.00,-32
1595306535,2020-07-21 06:42,435.00,-29
1595306595,2020-07-21 06:43,437.00,-28
1595306655,2020-07-21 06:44,436.00,-28
1595306716,2020-07-21 06:45,435.00,-29
1595306776,2020-07-21 06:46,439.00,-28
1595306836,2020-07-21 06:47,439.00,-30
1595306896,2020-07-21 06:48,435.00,-31
1595306956,2020-07-21 06:49,437.00,-28
1595307016,2020-07-21 06:50,435.00,-29
1595307076,2020-07-21 06:51,436.00,-31
1595307136,2020-07-21 06:52,438.00,-30
1595307196,2020-07-21 06:53,436.00,-28
1595307256,2020-07-21 06:54,437.00,-30
1595307316,2020-07-21 06:55,437.00,-28
1595307376,2020-07-21 06:56,438.00,-28
1595307436,2020-07-21 06:57,436.00,-29
1595307496,2020-07-21 06:58,435.00,-32
1595307556,2020-07-21 06:59,440.00,-29
1595307616,2020-07-21 07:00,437.00,-28
1595307677,2020-07-21 07:01,438.00,-28
1595307737,2020-07-21 07:02,437.00,-30
1595307797,2020-07-21 07:03,435.00,-28
1595307857,2020-07-21 07:04,434.00,-29
1595307917,2020-07-21 07:05,437.00,-28
1595307977,2020-07-21 07:06,436.00,-29
1595308037,2020-07-21 07:07,434.00,-29
1595308097,2020-07-21 07:08,430.00,-29
1595308157,2020-07-21 07:09,430.00,-28
1595308217,2020-07-21 07:10,428.00,-29
1595308277,2020-07-21 07:11,430.00,-32
1595308337,2020-07-21 07:12,428.00,-29
1595308397,2020-07-21 07:13,431.00,-29
1595308458,2020-07-21 07:14,428.00,-29
1595308518,2020-07-21 07:15,427.00,-29
1595308579,2020-07-21 07:16,427.00,-31
1595308639,2020-07-21 07:17,425.00,-31
1595308699,2020-07-21 07:18,429.00,-30
1595308759,2020-07-21 07:19,428.00,-31
1595308819,2020-07-21 07:20,427.00,-29
1595308879,2020-07-21 07:21,425.00,-30
1595308939,2020-07-21 07:22,426.00,-29
1595308999,2020-07-21 07:23,426.00,-30
1595309059,2020-07-21 07:24,429.00,-29
1595309119,2020-07-21 07:25,427.00,-29
1595309180,2020-07-21 07:26,428.00,-29
1595309240,2020-07-21 07:27,427.00,-29
1595309300,2020-07-21 07:28,428.00,-29
1595309360,2020-07-21 07:29,428.00,-29
1595309420,2020-07-21 07:30,429.00,-30
1595309480,2020-07-21 07:31,428.00,-27
1595309540,2020-07-21 07:32,428.00,-28
1595309600,2020-07-21 07:33,427.00,-28
1595309660,2020-07-21 07:34,429.00,-27
1595309720,2020-07-21 07:35,429.00,-29
1595309780,2020-07-21 07:36,426.00,-30
1595309841,2020-07-21 07:37,427.00,-28
1595309901,2020-07-21 07:38,426.00,-28
1595309961,2020-07-21 07:39,428.00,-28
1595310021,2020-07-21 07:40,425.00,-28
1595310081,2020-07-21 07:41,429.00,-28
1595310141,2020-07-21 07:42,426.00,-28
1595310201,2020-07-21 07:43,426.00,-28
1595310261,2020-07-21 07:44,425.00,-29
1595310321,2020-07-21 07:45,426.00,-30
1595310381,2020-07-21 07:46,425.00,-27
1595310441,2020-07-21 07:47,427.00,-29
1595310502,2020-07-21 07:48,426.00,-27
1595310562,2020-07-21 07:49,427.00,-29
1595310622,2020-07-21 07:50,428.00,-31
1595310682,2020-07-21 07:51,426.00,-31
1595310742,2020-07-21 07:52,423.00,-28
1595310802,2020-07-21 07:53,427.00,-28
1595310862,2020-07-21 07:54,426.00,-28
1595310922,2020-07-21 07:55,422.00,-28
1595310983,2020-07-21 07:56,420.00,-28
1595311043,2020-07-21 07:57,421.00,-28
1595311103,2020-07-21 07:58,421.00,-28
1595311163,2020-07-21 07:59,424.00,-30
1595311223,2020-07-21 08:00,421.00,-29
1595311283,2020-07-21 08:01,422.00,-29
1595311344,2020-07-21 08:02,425.00,-32
1595311404,2020-07-21 08:03,422.00,-28
1595311464,2020-07-21 08:04,423.00,-28
1595311524,2020-07-21 08:05,422.00,-28
1595311584,2020-07-21 08:06,422.00,-31
1595311644,2020-07-21 08:07,420.00,-28
1595311704,2020-07-21 08:08,418.00,-28
1595311764,2020-07-21 08:09,419.00,-30
1595311824,2020-07-21 08:10,417.00,-32
1595311884,2020-07-21 08:11,421.00,-27
1595311944,2020-07-21 08:12,420.00,-29
1595312005,2020-07-21 08:13,419.00,-28
1595312065,2020-07-21 08:14,421.00,-28
1595312125,2020-07-21 08:15,418.00,-29
1595312185,2020-07-21 08:16,418.00,-28
1595312245,2020-07-21 08:17,413.00,-28
1595312305,2020-07-21 08:18,414.00,-32
1595312365,2020-07-21 08:19,414.00,-28
1595312425,2020-07-21 08:20,416.00,-28
1595312485,2020-07-21 08:21,417.00,-28
1595312545,2020-07-21 08:22,416.00,-28
1595312606,2020-07-21 08:23,414.00,-29
1595312666,2020-07-21 08:24,417.00,-30
1595312726,2020-07-21 08:25,413.00,-29
1595312786,2020-07-21 08:26,416.00,-29
1595312846,2020-07-21 08:27,414.00,-28
1595312906,2020-07-21 08:28,416.00,-28
1595312966,2020-07-21 08:29,414.00,-28
1595313026,2020-07-21 08:30,416.00,-28
1595313086,2020-07-21 08:31,416.00,-28
1595313146,2020-07-21 08:32,415.00,-30
1595313207,2020-07-21 08:33,411.00,-28
1595313267,2020-07-21 08:34,414.00,-28
1595313327,2020-07-21 08:35,414.00,-30
1595313387,2020-07-21 08:36,416.00,-30
1595313447,2020-07-21 08:37,413.00,-32
1595313507,2020-07-21 08:38,413.00,-30
1595313567,2020-07-21 08:39,416.00,-32
1595313627,2020-07-21 08:40,416.00,-31
1595313687,2020-07-21 08:41,413.00,-30
1595313747,2020-07-21 08:42,413.00,-31
1595313808,2020-07-21 08:43,410.00,-30
1595313868,2020-07-21 08:44,411.00,-31
1595313928,2020-07-21 08:45,411.00,-32
1595313988,2020-07-21 08:46,409.00,-31
1595314048,2020-07-21 08:47,411.00,-31
1595314108,2020-07-21 08:48,410.00,-30
1595314169,2020-07-21 08:49,408.00,-30
1595314229,2020-07-21 08:50,409.00,-30
1595314289,2020-07-21 08:51,409.00,-31
1595314349,2020-07-21 08:52,408.00,-30
1595314409,2020-07-21 08:53,407.00,-30
1595314469,2020-07-21 08:54,409.00,-30
1595314529,2020-07-21 08:55,410.00,-30
1595314589,2020-07-21 08:56,407.00,-30
1595314649,2020-07-21 08:57,410.00,-30
1595314709,2020-07-21 08:58,410.00,-30
1595314769,2020-07-21 08:59,410.00,-31
1595314830,2020-07-21 09:00,408.00,-31
1595314890,2020-07-21 09:01,409.00,-30
1595314950,2020-07-21 09:02,406.00,-30
1595315010,2020-07-21 09:03,407.00,-30
1595315071,2020-07-21 09:04,406.00,-30
1595315131,2020-07-21 09:05,404.00,-30
1595315191,2020-07-21 09:06,404.00,-32
1595315251,2020-07-21 09:07,407.00,-30
1595315311,2020-07-21 09:08,407.00,-31
1595315371,2020-07-21 09:09,406.00,-31
1595315431,2020-07-21 09:10,409.00,-31
1595315492,2020-07-21 09:11,404.00,-30
1595315552,2020-07-21 09:12,407.00,-31
1595315612,2020-07-21 09:13,410.00,-30
1595315672,2020-07-21 09:14,411.00,-31
1595315732,2020-07-21 09:15,408.00,-30
1595315792,2020-07-21 09:16,409.00,-32
1595315853,2020-07-21 09:17,413.00,-29
1595315913,2020-07-21 09:18,409.00,-32
1595315973,2020-07-21 09:19,408.00,-29
1595316033,2020-07-21 09:20,410.00,-31
1595316093,2020-07-21 09:21,407.00,-30
1595316153,2020-07-21 09:22,409.00,-31
1595316214,2020-07-21 09:23,410.00,-29
1595316274,2020-07-21 09:24,409.00,-30
1595316334,2020-07-21 09:25,409.00,-30
1595316394,2020-07-21 09:26,407.00,-30
1595316454,2020-07-21 09:27,409.00,-30
1595316514,2020-07-21 09:28,405.00,-28
1595316574,2020-07-21 09:29,406.00,-28
1595316635,2020-07-21 09:30,408.00,-27
1595316695,2020-07-21 09:31,409.00,-28
1595316755,2020-07-21 09:32,411.00,-29
1595316815,2020-07-21 09:33,410.00,-29
1595316875,2020-07-21 09:34,413.00,-29
1595316935,2020-07-21 09:35,409.00,-30
1595316995,2020-07-21 09:36,406.00,-31
1595317055,2020-07-21 09:37,406.00,-30
1595317116,2020-07-21 09:38,405.00,-29
1595317176,2020-07-21 09:39,402.00,-29
1595317236,2020-07-21 09:40,404.00,-32
1595317296,2020-07-21 09:41,408.00,-29
1595317356,2020-07-21 09:42,407.00,-29
1595317416,2020-07-21 09:43,408.00,-29
1595317476,2020-07-21 09:44,409.00,-28
1595317536,2020-07-21 09:45,413.00,-29
1595317596,2020-07-21 09:46,412.00,-29
1595317656,2020-07-21 09:47,410.00,-29
1595317716,2020-07-21 09:48,409.00,-28
1595317776,2020-07-21 09:49,408.00,-30
1595317836,2020-07-21 09:50,405.00,-32
1595317896,2020-07-21 09:51,406.00,-31
1595317956,2020-07-21 09:52,410.00,-28
1595318016,2020-07-21 09:53,407.00,-30
1595318077,2020-07-21 09:54,405.00,-30
1595318137,2020-07-21 09:55,403.00,-30
1595318197,2020-07-21 09:56,401.00,-31
1595318257,2020-07-21 09:57,404.00,-31
1595318317,2020-07-21 09:58,404.00,-29
1595318380,2020-07-21 09:59,412.00,-29
1595318440,2020-07-21 10:00,407.00,-32
1595318500,2020-07-21 10:01,408.00,-30
1595318560,2020-07-21 10:02,408.00,-33
1595318620,2020-07-21 10:03,412.00,-29
1595318681,2020-07-21 10:04,412.00,-31
1595318741,2020-07-21 10:05,410.00,-28
1595318801,2020-07-21 10:06,409.00,-28
1595318861,2020-07-21 10:07,410.00,-29
1595318921,2020-07-21 10:08,411.00,-29
1595318981,2020-07-21 10:09,411.00,-31
1595319041,2020-07-21 10:10,411.00,-30
1595319101,2020-07-21 10:11,410.00,-29
1595319161,2020-07-21 10:12,405.00,-29
1595319221,2020-07-21 10:13,405.00,-30
1595319282,2020-07-21 10:14,402.00,-30
1595319342,2020-07-21 10:15,403.00,-30